Regional Weather Roundup
Issued by NWS Little Rock, AR

Home | Current Version | Previous Version | Text Only | Print | Product List | Glossary On
Versions: 1 2 3 4 5 6 7 8 9 10 11 12 13 14 15 16 17 18 19 20 21 22 23 24 25 26 27 28 29 30 31 32 33 34 35 36 37 38 39 40 41 42 43 44 45 46 47 48 49 50
175
ASUS44 KLZK 280605
RWRLZK

WEATHER ROUNDUP FOR ARKANSAS
NATIONAL WEATHER SERVICE LITTLE ROCK AR
100 AM CDT SUN AUG 28 2016

NOTE: "FAIR" INDICATES FEW OR NO CLOUDS BELOW 12,000 FEET WITH NO
SIGNIFICANT WEATHER AND/OR OBSTRUCTIONS TO VISIBILITY.

ARZ001-003-010-029-280700-
NORTHWEST ARKANSAS

CITY           SKY/WX    TMP DP  RH WIND       PRES   REMARKS
FAYETTEVILLE   CLEAR     68  68 100 S3        30.11R
6HR MIN TEMP:  68; 6HR MAX TEMP:  80;

FORT SMITH     CLOUDY    76  73  91 NE3       30.06R
6HR MIN TEMP:  76; 6HR MAX TEMP:  85;

HARRISON       CLEAR     71  70  96 CALM      30.12S
6HR MIN TEMP:  71; 6HR MAX TEMP:  78;

BENTONVILLE    CLEAR     72  66  83 CALM      30.11S
6HR MIN TEMP:  72; 6HR MAX TEMP:  84;

ROGERS         PTCLDY    73  72  96 CALM      30.12S
6HR MIN TEMP:  73; 6HR MAX TEMP:  83;

SILOAM SPGS    CLEAR     73  64  73 SE5       30.11S
HIGHFILL       PTCLDY    72  71  97 CALM      30.10S
6HR MIN TEMP:  72; 6HR MAX TEMP:  85;

$$

ARZ004-005-016-280700-
NORTH CENTRAL ARKANSAS

CITY           SKY/WX    TMP DP  RH WIND       PRES   REMARKS
BATESVILLE     CLEAR     73  72  94 CALM      30.08S
6HR MIN TEMP:  73; 6HR MAX TEMP:  86;

FLIPPIN        CLEAR     73  70  88 CALM      30.07S
6HR MIN TEMP:  73; 6HR MAX TEMP:  82;

MTN HOME       CLEAR     73  72  96 CALM      30.10S
6HR MIN TEMP:  73; 6HR MAX TEMP:  79;

$$

ARZ040-041-280700-
WEST CENTRAL ARKANSAS

CITY           SKY/WX    TMP DP  RH WIND       PRES   REMARKS
MENA           CLEAR     72  70  94 CALM      30.08S
MOUNT IDA      PTCLDY    72  71  97 CALM      30.05S FOG
6HR MIN TEMP:  72; 6HR MAX TEMP:  82;

$$

ARZ009-017-025-026-028-280700-
NORTHEAST ARKANSAS

CITY           SKY/WX    TMP DP  RH WIND       PRES   REMARKS
CORNING          N/A     75  75 100 E3        30.08S
JONESBORO      PTCLDY    75  72  90 CALM      30.07S
6HR MIN TEMP:  74; 6HR MAX TEMP:  88;

NEWPORT        MOCLDY    74  73  97 NE5       30.07S
6HR MIN TEMP:  74; 6HR MAX TEMP:  85;

WALNUT RIDGE   CLEAR     75  70  83 N5        30.07S
6HR MIN TEMP:  75; 6HR MAX TEMP:  86;

BLYTHEVILLE    CLEAR     76  74  93 E3        30.07S
6HR MIN TEMP:  76; 6HR MAX TEMP:  86;

$$

ARZ022-023-033-042-044-280700-
CENTRAL ARKANSAS

CITY           SKY/WX    TMP DP  RH WIND       PRES   REMARKS
LITTLE ROCK    PTCLDY    80  73  79 N5        30.05F
6HR MIN TEMP:  79; 6HR MAX TEMP:  89;

N LITTLE ROCK    N/A     78  72  83 CALM      30.03S
6HR MIN TEMP:  76; 6HR MAX TEMP:  86;

JACKSONVILLE   PTCLDY    75  75  99 CALM      30.05S
6HR MIN TEMP:  75; 6HR MAX TEMP:  88;

SEARCY         PTCLDY    76  74  93 CALM      30.07F
6HR MIN TEMP:  74; 6HR MAX TEMP:  87;

HOT SPRINGS    CLEAR     75  72  90 CALM      30.06S
6HR MIN TEMP:  75; 6HR MAX TEMP:  87;

RUSSELLVILLE   CLEAR     74  73  97 CALM      30.06R
6HR MIN TEMP:  74; 6HR MAX TEMP:  84;

$$

ARZ036-280700-
EAST ARKANSAS

CITY           SKY/WX    TMP DP  RH WIND       PRES   REMARKS
WEST MEMPHIS   CLEAR     77  73  87 CALM      30.05S
6HR MIN TEMP:  75; 6HR MAX TEMP:  86;

$$

ARZ050-053-066-070-073-280700-
SOUTHWEST ARKANSAS

CITY           SKY/WX    TMP DP  RH WIND       PRES   REMARKS
ARKADELPHIA    FAIR      75  74  96 CALM      30.04S
6HR MIN TEMP:  75; 6HR MAX TEMP:  85;

TEXARKANA      MOCLDY    76  72  87 SW6       30.03F
6HR MIN TEMP:  75; 6HR MAX TEMP:  86;

EL DORADO      CLOUDY    76  74  93 SW3       30.03S
6HR MIN TEMP:  75; 6HR MAX TEMP:  86;

DE QUEEN       CLEAR     74  74 100 NE3       30.02S
6HR MIN TEMP:  73; 6HR MAX TEMP:  87;

$$

ARZ056-057-069-280700-
SOUTHEAST ARKANSAS

CITY           SKY/WX    TMP DP  RH WIND       PRES   REMARKS
PINE BLUFF     PTCLDY    76  73  91 E3        30.03F
6HR MIN TEMP:  76; 6HR MAX TEMP:  88;

STUTTGART      CLOUDY    79  72  78 E7        30.04F
6HR MIN TEMP:  77; 6HR MAX TEMP:  88;

MONTICELLO     CLEAR     79  74  84 CALM      30.03S
6HR MIN TEMP:  78; 6HR MAX TEMP:  90;


$$






USA.gov is the U.S. government's official web portal to all federal, state and local government web resources and services.